Regional Weather Roundup
Issued by NWS Spokane, WA

Home | Current Version | Previous Version | Text Only | Print | Product List | Glossary On
Versions: 1 2 3 4 5 6 7 8 9 10 11 12 13 14 15 16 17 18 19 20 21 22 23 24 25 26 27 28 29 30 31 32 33 34 35 36 37 38 39 40 41 42 43 44 45 46 47 48 49 50
000
NZUS01 KOTX 010100
RWROTX
EASTERN WASHINGTON/NORTHERN IDAHO ROUNDUP
NATIONAL WEATHER SERVICE, SPOKANE WA
600 PM PDT TUE SEP 30 2014

Note: "fair" indicated few or no clouds below 12,000 feet with no
significant weather and/or obstructions to visibility.

...NORTHEAST WASHINGTON AND NORTHERN IDAHO PANHANDLE...

CITY           SKY/WX    TMP DP  RH WIND       PRES   REMARKS
SPOKANE INTL   MOCLDY    58  38  47 W14       29.92R
SPOKANE DOWNTO MOCLDY    60  43  53 CALM      29.92R
COEUR D ALENE  MOCLDY    55  43  62 CALM      29.92R
DEER PARK      PTCLDY    56  42  59 NW9       29.92S

...SOUTHEAST WASHINGTON AND SOUTHERN IDAHO PANHANDLE...

CITY           SKY/WX    TMP DP  RH WIND       PRES   REMARKS
PULLMAN/MOSCOW MOCLDY    58  37  45 SW14      29.96S
LOWELL           N/A     53  49  86 NW3       30.00R

...COLUMBIA BASIN...

CITY           SKY/WX    TMP DP  RH WIND       PRES   REMARKS
EPHRATA        CLEAR     66  33  29 NW23G30   29.92S
MOSES LAKE     CLEAR     67  33  28 W17       29.94R
HERMISTON      PTCLDY    68  42  38 W14       29.97S
PENDLETON      PTCLDY    63  40  42 W15       29.98S

...EAST SLOPES CASCADES...

CITY           SKY/WX    TMP DP  RH WIND       PRES   REMARKS
THE DALLES     CLEAR     65  45  48 W22G29    30.05R
WENATCHEE      CLEAR     64  35  34 W24G32    29.97R
OMAK           PTCLDY    61  38  42 N15       29.96R

...SOUTHERN BRITISH COLUMBIA...

CITY           SKY/WX    TMP DP  RH WIND       PRES   REMARKS

...WESTERN MONTANA...

CITY           SKY/WX    TMP DP  RH WIND       PRES   REMARKS
MISSOULA       MOCLDY    52  39  61 NW8       29.95R

...NEIGHBORING CITIES...

CITY           SKY/WX    TMP DP  RH WIND       PRES   REMARKS
SEATTLE        PTCLDY    63  49  60 NE8       30.10S



USA.gov is the U.S. government's official web portal to all federal, state and local government web resources and services.